St. Petersburg, FL

12:11 AM EDT on October 20, 2017 (GMT -0400)
Whitted

Weather History for KSPG - October, 2011

Change the Weather History Date:

Monday, October 31, 2011

  Actual Average Record
Temperature  
Mean Temperature 70 °F -  
Max Temperature 75 °F 81 °F 88 °F (1972)
Min Temperature 66 °F 67 °F 52 °F (1953)
Cooling Degree Days 6    
Growing Degree Days 20 (Base 50)    
Moisture  
Dew Point 65 °F    
Average Humidity 87    
Maximum Humidity 100    
Minimum Humidity 64    
Precipitation  
Precipitation 0.21 in - - ()
Sea Level Pressure  
Sea Level Pressure 30.01 in    
Wind  
Wind Speed 15 mph (NE)    
Max Wind Speed 21 mph    
Max Gust Speed 26 mph    
Visibility 9 miles    
Events Rain    
Averages and records for this station are not official NWS values.
T = Trace of Precipitation, MM = Missing Value Source: NWS Daily Summary

Daily Weather History Graph

Daily Weather History Graph

Search for Another Location

Airport or City:

Trip Planner

Search our weather history database for the weather conditions in past years. The results will help you decide how hot, cold, wet, or windy it might be!

Date:

Astronomy

Oct. 31, 2011 Rise Set
Actual Time 7:40 AM EDT 6:47 PM EDT
Civil Twilight 7:16 AM EDT 7:11 PM EDT
Nautical Twilight 6:48 AM EDT 7:39 PM EDT
Astronomical Twilight 6:21 AM EDT 8:06 PM EDT
Moon 12:35 PM EDT (10/31) 11:31 PM EDT (10/31)
Length of Visible Light 11h 54m
Length of Day
11h 06m
Waxing Crescent, 29% of the Moon is Illuminated
Oct 31
Waxing Crescent
Nov 2
First Quarter
Nov 10
Full
Nov 18
Last Quarter
Nov 25
New

Hourly Weather History & Observations

Time (EDT) Temp. Dew Point Humidity Pressure Visibility Wind Dir Wind Speed Gust Speed Precip Events Conditions
12:53 AM 68.0 °F 66.0 °F 93% 30.05 in 10.0 mi ENE 17.3 mph - 0.00 in   Overcast
1:53 AM 68.0 °F 66.0 °F 93% 30.03 in 10.0 mi ENE 18.4 mph - N/A   Mostly Cloudy
2:53 AM 68.0 °F 66.0 °F 93% 30.02 in 10.0 mi East 18.4 mph - N/A   Overcast
3:04 AM 68.0 °F 66.2 °F 94% 30.02 in 10.0 mi East 17.3 mph - N/A   Overcast
3:53 AM 68.0 °F 66.0 °F 93% 30.01 in 10.0 mi East 16.1 mph - N/A   Overcast
4:34 AM 69.8 °F 66.2 °F 88% 30.00 in 10.0 mi ENE 13.8 mph - N/A   Overcast
4:53 AM 69.1 °F 66.9 °F 93% 29.99 in 10.0 mi ENE 13.8 mph - N/A   Overcast
5:22 AM 69.8 °F 66.2 °F 88% 29.99 in 10.0 mi ENE 15.0 mph - 0.00 in   Overcast
5:34 AM 68.0 °F 66.2 °F 94% 29.99 in 10.0 mi ENE 13.8 mph - 0.00 in Rain Light Rain
5:53 AM 68.0 °F 66.9 °F 96% 29.99 in 10.0 mi ENE 13.8 mph - 0.00 in Rain Light Rain
6:15 AM 68.0 °F 66.2 °F 94% 29.98 in 9.0 mi NE 9.2 mph - 0.04 in Rain Light Rain
6:48 AM 68.0 °F 66.2 °F 94% 29.98 in 10.0 mi NNE 11.5 mph - 0.05 in Rain Light Rain
7:53 AM 66.9 °F 66.9 °F 100% 29.99 in 4.0 mi NNE 11.5 mph - 0.10 in Rain Rain
8:02 AM 66.2 °F 66.2 °F 100% 29.99 in 3.0 mi NNE 12.7 mph - 0.01 in Rain Rain
8:44 AM 66.2 °F 66.2 °F 100% 30.01 in 6.0 mi North 9.2 mph - 0.10 in Rain Light Rain
8:53 AM 66.9 °F 66.0 °F 97% 30.02 in 10.0 mi NNE 12.7 mph - 0.10 in Rain Light Rain
9:53 AM 66.9 °F 66.9 °F 100% 30.04 in 10.0 mi NNE 20.7 mph 26.5 mph 0.01 in Rain Light Rain
10:26 AM 68.0 °F 66.2 °F 94% 30.05 in 8.0 mi NNE 18.4 mph 25.3 mph 0.00 in Rain Light Rain
10:53 AM 68.0 °F 66.9 °F 96% 30.05 in 10.0 mi NNE 18.4 mph 25.3 mph 0.00 in Rain Light Rain
11:53 AM 69.1 °F 66.9 °F 93% 30.04 in 10.0 mi NE 18.4 mph - 0.00 in   Overcast
12:53 PM 71.1 °F 66.0 °F 84% 30.02 in 10.0 mi NE 11.5 mph - N/A   Overcast
1:53 PM 72.0 °F 64.9 °F 78% 29.99 in 10.0 mi NE 13.8 mph - N/A   Overcast
2:53 PM 73.9 °F 64.0 °F 71% 29.97 in 10.0 mi NE 11.5 mph - N/A   Overcast
3:53 PM 75.9 °F 63.0 °F 64% 29.96 in 10.0 mi NE 12.7 mph - N/A   Overcast
4:53 PM 75.0 °F 63.0 °F 66% 29.96 in 10.0 mi NE 12.7 mph - N/A   Overcast
5:53 PM 75.0 °F 63.0 °F 66% 29.97 in 10.0 mi NE 11.5 mph - N/A   Clear
6:53 PM 73.0 °F 64.0 °F 73% 30.00 in 10.0 mi NE 10.4 mph - N/A   Clear
7:53 PM 72.0 °F 63.0 °F 73% 30.02 in 10.0 mi NE 12.7 mph - N/A   Clear
8:53 PM 71.1 °F 63.0 °F 75% 30.04 in 10.0 mi NE 10.4 mph - N/A   Clear
9:53 PM 70.0 °F 63.0 °F 78% 30.05 in 10.0 mi NE 8.1 mph - N/A   Clear
10:53 PM 68.0 °F 63.0 °F 84% 30.07 in 10.0 mi North 5.8 mph - N/A   Clear